GLO1940 SBSV-SBPL

Flight info

Callsign GLO1940
Flight time 0h 46m
Altitude 32000
Route BOGUT DCT SIPIR
Aircraft B738/M-SDFGIKLORWX/LB1

Departure

Time 2026-04-22 18:20
Airport Deputado Luiz Eduardo Magalhães International Airport (SBSV)

Arrival

Time 2026-04-22 19:06
Airport Senador Nilo Coelho Airport (SBPL)
Time Latitude Longitude Altitude Speed Heading
2026-04-22 18:07 -12.91391 -38.33210 43 ft 0 kts 277°
2026-04-22 18:13 -12.91394 -38.33194 43 ft 3 kts 283°
2026-04-22 18:13 -12.91400 -38.33172 43 ft 3 kts 294°
2026-04-22 18:13 -12.91411 -38.33153 43 ft 3 kts 313°
2026-04-22 18:14 -12.91427 -38.33141 43 ft 3 kts 345°
2026-04-22 18:14 -12.91436 -38.33139 41 ft 0 kts 349°
2026-04-22 18:16 -12.91419 -38.33142 43 ft 5 kts 349°
2026-04-22 18:16 -12.91362 -38.33153 43 ft 11 kts 349°
2026-04-22 18:17 -12.91279 -38.33169 43 ft 12 kts 349°
2026-04-22 18:17 -12.91213 -38.33207 42 ft 12 kts 280°
2026-04-22 18:17 -12.91221 -38.33291 43 ft 12 kts 268°
2026-04-22 18:17 -12.91198 -38.33368 42 ft 11 kts 296°
2026-04-22 18:18 -12.91164 -38.33439 42 ft 11 kts 298°
2026-04-22 18:18 -12.91106 -38.33463 43 ft 11 kts 45°
2026-04-22 18:18 -12.91094 -38.33432 42 ft 0 kts 77°
2026-04-22 18:19 -12.91091 -38.33419 42 ft 6 kts 77°
2026-04-22 18:19 -12.91043 -38.33185 41 ft 73 kts 78°
2026-04-22 18:20 -12.90888 -38.32413 51 ft 146 kts 78°
2026-04-22 18:20 -12.90689 -38.31181 215 ft 194 kts 77°
2026-04-22 18:20 -12.90396 -38.29867 1378 ft 185 kts 80°
2026-04-22 18:20 -12.90080 -38.28503 2074 ft 212 kts 70°
2026-04-22 18:21 -12.89042 -38.27288 2339 ft 251 kts 30°
2026-04-22 18:21 -12.87258 -38.26935 2961 ft 272 kts 358°
2026-04-22 18:21 -12.85349 -38.27131 3887 ft 280 kts 353°
2026-04-22 18:21 -12.83417 -38.27407 4892 ft 282 kts 353°
2026-04-22 18:22 -12.81461 -38.27669 5937 ft 285 kts 354°
2026-04-22 18:22 -12.79505 -38.27900 6895 ft 289 kts 355°
2026-04-22 18:22 -12.77496 -38.28106 7814 ft 292 kts 356°
2026-04-22 18:22 -12.75451 -38.28298 8726 ft 296 kts 356°
2026-04-22 18:23 -12.73382 -38.28484 9616 ft 300 kts 356°
2026-04-22 18:23 -12.71289 -38.28670 10420 ft 307 kts 356°
2026-04-22 18:23 -12.69072 -38.28826 10732 ft 330 kts 358°
2026-04-22 18:24 -12.64366 -38.29091 12235 ft 341 kts 358°
2026-04-22 18:24 -12.61991 -38.29224 13120 ft 343 kts 358°
2026-04-22 18:24 -12.57198 -38.29501 14630 ft 352 kts 357°
2026-04-22 18:25 -12.54741 -38.29645 15361 ft 355 kts 357°
2026-04-22 18:25 -12.52259 -38.29791 16109 ft 358 kts 356°
2026-04-22 18:25 -12.49762 -38.29939 16822 ft 361 kts 356°
2026-04-22 18:26 -12.44682 -38.30239 18157 ft 369 kts 356°
2026-04-22 18:26 -12.42110 -38.30401 18794 ft 372 kts 353°
2026-04-22 18:26 -12.39607 -38.31123 19310 ft 378 kts 333°
2026-04-22 18:26 -12.37498 -38.32732 19898 ft 382 kts 313°
2026-04-22 18:27 -12.35999 -38.34992 20452 ft 387 kts 296°
2026-04-22 18:27 -12.34920 -38.37537 20951 ft 393 kts 293°
2026-04-22 18:27 -12.33882 -38.40150 21350 ft 401 kts 292°
2026-04-22 18:27 -12.32811 -38.42800 21795 ft 406 kts 293°
2026-04-22 18:28 -12.31699 -38.45470 22288 ft 409 kts 294°
2026-04-22 18:28 -12.30563 -38.48160 22735 ft 414 kts 294°
2026-04-22 18:28 -12.29412 -38.50879 23176 ft 419 kts 294°
2026-04-22 18:28 -12.28249 -38.53629 23589 ft 423 kts 294°
2026-04-22 18:29 -12.27078 -38.56400 24023 ft 426 kts 294°
2026-04-22 18:29 -12.25897 -38.59199 24422 ft 431 kts 294°
2026-04-22 18:29 -12.24705 -38.62020 24867 ft 433 kts 294°
2026-04-22 18:29 -12.23522 -38.64819 25308 ft 435 kts 293°
2026-04-22 18:30 -12.22322 -38.67660 25759 ft 436 kts 293°
2026-04-22 18:30 -12.19900 -38.73387 26600 ft 441 kts 293°
2026-04-22 18:30 -12.18683 -38.76260 27146 ft 439 kts 292°
2026-04-22 18:31 -12.17475 -38.79112 27787 ft 435 kts 292°
2026-04-22 18:31 -12.16278 -38.81937 28398 ft 433 kts 292°
2026-04-22 18:31 -12.15085 -38.84751 28935 ft 431 kts 292°
2026-04-22 18:31 -12.13893 -38.87565 29425 ft 431 kts 291°
2026-04-22 18:32 -12.12703 -38.90375 29917 ft 431 kts 291°
2026-04-22 18:32 -12.10273 -38.96112 29981 ft 448 kts 291°
2026-04-22 18:33 -12.07753 -39.02055 29988 ft 463 kts 291°
2026-04-22 18:33 -12.05149 -39.08187 29982 ft 476 kts 291°
2026-04-22 18:34 -12.02481 -39.14466 29983 ft 487 kts 291°
2026-04-22 18:34 -11.99017 -39.20368 29985 ft 493 kts 314°
2026-04-22 18:34 -11.96296 -39.22502 29974 ft 495 kts 330°
2026-04-22 18:35 -11.93276 -39.24174 29981 ft 494 kts 332°
2026-04-22 18:35 -11.87129 -39.27365 29968 ft 495 kts 333°
2026-04-22 18:36 -11.80996 -39.30564 29968 ft 495 kts 332°
2026-04-22 18:36 -11.74895 -39.33819 29968 ft 495 kts 332°
2026-04-22 18:37 -11.68809 -39.37098 29972 ft 494 kts 332°
2026-04-22 18:37 -11.63755 -39.39824 29972 ft 494 kts 332°
2026-04-22 18:38 -11.56645 -39.43653 29972 ft 494 kts 332°
2026-04-22 18:38 -11.50561 -39.46923 29974 ft 494 kts 332°
2026-04-22 18:39 -11.41431 -39.51830 29971 ft 494 kts 332°
2026-04-22 18:39 -11.35343 -39.55099 29973 ft 494 kts 332°
2026-04-22 18:40 -11.29261 -39.58364 29971 ft 494 kts 332°
2026-04-22 18:40 -11.23208 -39.61611 29975 ft 494 kts 332°
2026-04-22 18:41 -11.17131 -39.64871 29971 ft 493 kts 332°
2026-04-22 18:41 -11.11060 -39.68125 29972 ft 493 kts 332°
2026-04-22 18:42 -11.04978 -39.71383 29964 ft 493 kts 332°
2026-04-22 18:42 -10.98895 -39.74640 29965 ft 493 kts 332°
2026-04-22 18:43 -10.92818 -39.77893 29963 ft 493 kts 332°
2026-04-22 18:43 -10.86778 -39.81124 29964 ft 493 kts 332°
2026-04-22 18:44 -10.80702 -39.84374 29963 ft 493 kts 332°
2026-04-22 18:44 -10.77691 -39.85984 29946 ft 480 kts 332°
2026-04-22 18:44 -10.74773 -39.87544 29947 ft 471 kts 332°
2026-04-22 18:45 -10.69001 -39.90627 29962 ft 468 kts 332°
2026-04-22 18:45 -10.66109 -39.92172 29535 ft 469 kts 332°
2026-04-22 18:45 -10.63240 -39.93704 29046 ft 463 kts 332°
2026-04-22 18:46 -10.60401 -39.95220 28514 ft 458 kts 332°
2026-04-22 18:46 -10.57594 -39.96719 27989 ft 454 kts 332°
2026-04-22 18:46 -10.54806 -39.98207 27441 ft 450 kts 332°
2026-04-22 18:46 -10.52075 -39.99663 26911 ft 447 kts 332°
2026-04-22 18:47 -10.49295 -40.01147 26356 ft 443 kts 332°
2026-04-22 18:47 -10.46613 -40.02579 25823 ft 440 kts 332°
2026-04-22 18:47 -10.43919 -40.04015 25269 ft 436 kts 332°
2026-04-22 18:47 -10.41260 -40.05469 24724 ft 432 kts 329°
2026-04-22 18:48 -10.38739 -40.07135 24095 ft 430 kts 326°
2026-04-22 18:48 -10.36298 -40.08870 23560 ft 426 kts 324°
2026-04-22 18:48 -10.33899 -40.10614 23032 ft 421 kts 324°
2026-04-22 18:48 -10.31530 -40.12338 22508 ft 417 kts 324°
2026-04-22 18:49 -10.29176 -40.14041 21996 ft 413 kts 325°
2026-04-22 18:49 -10.26846 -40.15713 21485 ft 408 kts 325°
2026-04-22 18:49 -10.24533 -40.17364 20983 ft 404 kts 325°
2026-04-22 18:49 -10.22240 -40.18994 20484 ft 400 kts 326°
2026-04-22 18:50 -10.19967 -40.20607 19989 ft 396 kts 326°
2026-04-22 18:50 -10.17715 -40.22203 19501 ft 392 kts 326°
2026-04-22 18:50 -10.16236 -40.23251 19181 ft 390 kts 326°
2026-04-22 18:50 -10.14019 -40.24820 18694 ft 386 kts 326°
2026-04-22 18:51 -10.11118 -40.26874 18064 ft 382 kts 326°
2026-04-22 18:51 -10.08948 -40.28409 17590 ft 378 kts 326°
2026-04-22 18:51 -10.06802 -40.29929 17118 ft 375 kts 326°
2026-04-22 18:51 -10.04667 -40.31439 16653 ft 372 kts 326°
2026-04-22 18:52 -10.03264 -40.32433 16342 ft 370 kts 326°
2026-04-22 18:52 -10.01161 -40.33920 15878 ft 367 kts 326°
2026-04-22 18:52 -9.99076 -40.35394 15419 ft 364 kts 326°
2026-04-22 18:52 -9.97005 -40.36858 14960 ft 361 kts 326°
2026-04-22 18:53 -9.94952 -40.38310 14497 ft 359 kts 326°
2026-04-22 18:53 -9.92909 -40.39755 14053 ft 357 kts 326°
2026-04-22 18:53 -9.90882 -40.41188 13608 ft 354 kts 326°
2026-04-22 18:53 -9.88863 -40.42615 13161 ft 353 kts 326°
2026-04-22 18:54 -9.86854 -40.44035 12714 ft 351 kts 326°
2026-04-22 18:54 -9.84860 -40.45443 12272 ft 349 kts 326°
2026-04-22 18:54 -9.82872 -40.46848 11832 ft 347 kts 326°
2026-04-22 18:54 -9.80894 -40.48244 11393 ft 345 kts 326°
2026-04-22 18:55 -9.78926 -40.49634 10956 ft 344 kts 326°
2026-04-22 18:55 -9.76992 -40.51000 10546 ft 341 kts 326°
2026-04-22 18:55 -9.75077 -40.52354 10408 ft 331 kts 326°
2026-04-22 18:55 -9.73216 -40.53670 10255 ft 321 kts 326°
2026-04-22 18:56 -9.71407 -40.54947 10114 ft 312 kts 326°
2026-04-22 18:56 -9.69653 -40.56185 9982 ft 303 kts 326°
2026-04-22 18:56 -9.67937 -40.57396 9743 ft 299 kts 326°
2026-04-22 18:56 -9.66227 -40.58603 9446 ft 298 kts 326°
2026-04-22 18:57 -9.64531 -40.59797 9139 ft 295 kts 326°
2026-04-22 18:57 -9.62854 -40.60983 8836 ft 294 kts 326°
2026-04-22 18:57 -9.61180 -40.62164 8535 ft 293 kts 326°
2026-04-22 18:57 -9.59511 -40.63340 8236 ft 292 kts 326°
2026-04-22 18:58 -9.57849 -40.64512 7932 ft 291 kts 326°
2026-04-22 18:58 -9.56187 -40.65683 7636 ft 290 kts 326°
2026-04-22 18:58 -9.54538 -40.66848 7332 ft 289 kts 325°
2026-04-22 18:58 -9.52886 -40.68016 7019 ft 288 kts 326°
2026-04-22 18:59 -9.51260 -40.69160 6719 ft 288 kts 326°
2026-04-22 18:59 -9.49631 -40.70306 6591 ft 281 kts 326°
2026-04-22 18:59 -9.48045 -40.71423 6452 ft 274 kts 326°
2026-04-22 18:59 -9.46500 -40.72513 6326 ft 267 kts 325°
2026-04-22 19:00 -9.45020 -40.73556 6212 ft 261 kts 326°
2026-04-22 19:00 -9.43529 -40.74607 6090 ft 254 kts 325°
2026-04-22 19:00 -9.42098 -40.75616 5925 ft 250 kts 325°
2026-04-22 19:00 -9.40632 -40.76545 5668 ft 248 kts 340°
2026-04-22 19:01 -9.38963 -40.76744 5420 ft 241 kts 11°
2026-04-22 19:01 -9.37366 -40.76323 5228 ft 235 kts 21°
2026-04-22 19:01 -9.35845 -40.75777 5027 ft 228 kts 22°
2026-04-22 19:01 -9.34363 -40.75240 4772 ft 223 kts 22°
2026-04-22 19:02 -9.32917 -40.74723 4555 ft 217 kts 23°
2026-04-22 19:02 -9.31716 -40.73893 4313 ft 205 kts 56°
2026-04-22 19:02 -9.31204 -40.72631 4120 ft 189 kts 85°
2026-04-22 19:02 -9.31305 -40.71350 3906 ft 179 kts 109°
2026-04-22 19:03 -9.31700 -40.70187 3724 ft 173 kts 111°
2026-04-22 19:03 -9.32086 -40.69052 3505 ft 170 kts 111°
2026-04-22 19:03 -9.32463 -40.67946 3285 ft 164 kts 111°
2026-04-22 19:03 -9.32824 -40.66891 3119 ft 154 kts 111°
2026-04-22 19:04 -9.33174 -40.65875 2894 ft 151 kts 111°
2026-04-22 19:04 -9.33512 -40.64892 2696 ft 149 kts 111°
2026-04-22 19:04 -9.33852 -40.63898 2506 ft 150 kts 111°
2026-04-22 19:04 -9.34195 -40.62899 2310 ft 150 kts 111°
2026-04-22 19:05 -9.34538 -40.61901 2112 ft 149 kts 111°
2026-04-22 19:05 -9.34879 -40.60905 1898 ft 150 kts 111°
2026-04-22 19:05 -9.35218 -40.59908 1697 ft 150 kts 110°
2026-04-22 19:05 -9.35568 -40.58893 1427 ft 154 kts 112°
2026-04-22 19:06 -9.35917 -40.57883 1279 ft 147 kts 110°
2026-04-22 19:06 -9.36203 -40.57042 1271 ft 99 kts 109°
2026-04-22 19:06 -9.36349 -40.56624 1271 ft 27 kts 109°
2026-04-22 19:07 -9.36418 -40.56558 1270 ft 5 kts 197°
2026-04-22 19:07 -9.36461 -40.56571 1269 ft 8 kts 196°
2026-04-22 19:07 -9.36523 -40.56586 1270 ft 10 kts 161°
2026-04-22 19:07 -9.36561 -40.56543 1269 ft 3 kts 178°
2026-04-22 19:08 -9.36589 -40.56556 1268 ft 5 kts 199°
2026-04-22 19:08 -9.36590 -40.56556 1268 ft 0 kts 199°